{"data":{"norad_id":66182,"epoch":"2026-05-24T23:55:28.328160Z","epoch_age_seconds":75553,"freshness":"FRESH","line1":"1 66182U 25243F   26144.99685565  .00022650  00000+0  77425-3 0  9991","line2":"2 66182  53.1583 251.0328 0000925 258.3862 101.7035 15.30212311 32338","mean_motion":15.30212311,"eccentricity":9.25e-5,"inclination_deg":53.1583,"raan_deg":251.0328,"arg_perigee_deg":258.3862,"mean_anomaly_deg":101.7035,"bstar":0.00077425,"rev_number":3233,"period_min":94.104588601758,"perigee_km":474.54437957255,"apogee_km":475.81224290513,"semimajor_km":6853.3153112388,"source":"CELESTRAK","updated_at":"2026-05-25T13:38:21.076345Z"}}